Price, UT

12:58 AM MST on December 13, 2017 (GMT -0700)
Carbon County

Weather History for KPUC - February, 2014

Change the Weather History Date:

Thursday, February 20, 2014

  Actual Average Record
Temperature  
Mean Temperature 30 °F -  
Max Temperature 39 °F 38 °F 63 °F (1977)
Min Temperature 21 °F 21 °F 6 °F (1973)
Degree Days  
Heating Degree Days 35    
Moisture  
Dew Point 5 °F    
Average Humidity 35    
Maximum Humidity 48    
Minimum Humidity 23    
Precipitation  
Precipitation 0.00 in - - ()
Sea Level Pressure  
Sea Level Pressure 30.20 in    
Wind  
Wind Speed 10 mph (NW)    
Max Wind Speed 17 mph    
Max Gust Speed 25 mph    
Visibility 10 miles    
Events      
Averages and records for this station are not official NWS values.
T = Trace of Precipitation, MM = Missing Value Source: NWS Daily Summary

Daily Weather History Graph

Daily Weather History Graph

Search for Another Location

Airport or City:

Trip Planner

Search our weather history database for the weather conditions in past years. The results will help you decide how hot, cold, wet, or windy it might be!

Date:

Astronomy

Feb. 20, 2014 Rise Set
Actual Time 7:08 AM MST 6:05 PM MST
Civil Twilight 6:41 AM MST 6:32 PM MST
Nautical Twilight 6:09 AM MST 7:04 PM MST
Astronomical Twilight 5:38 AM MST 7:35 PM MST
Moon No Moon Rise 9:55 AM MST (2/20)
Length of Visible Light 11h 51m
Length of Day
10h 56m
Waning Gibbous, 70% of the Moon is Illuminated
Feb 20
Waning Gibbous
Feb 22
Last Quarter
Mar 1
New
Mar 8
First Quarter
Mar 16
Full

Hourly Weather History & Observations

Time (MST) Temp. Windchill Dew Point Humidity Pressure Visibility Wind Dir Wind Speed Gust Speed Precip Events Conditions
12:53 AM 26.1 °F 14.0 °F 3.0 °F 37% 30.08 in 10.0 mi NW 15.0 mph 24.2 mph N/A   Unknown
1:53 AM - - - N/A% 30.03 in - North - - N/A   Unknown
2:53 AM - - - N/A% 30.05 in - North - - N/A   Unknown
3:53 AM 21.0 °F 14.6 °F 3.0 °F 46% 30.18 in - NW 4.6 mph - N/A   Unknown
4:53 AM 23.0 °F 14.7 °F 3.0 °F 42% 30.22 in 10.0 mi WNW 6.9 mph - N/A   Unknown
5:53 AM - - - N/A% 30.14 in - North - - N/A   Unknown
6:53 AM 21.9 °F 11.0 °F 3.9 °F 46% 30.30 in 10.0 mi NW 10.4 mph - N/A   Unknown
7:53 AM 23.0 °F 11.7 °F 5.0 °F 46% 30.31 in 10.0 mi NW 11.5 mph - N/A   Unknown
8:53 AM 27.0 °F - 5.0 °F 39% 30.31 in - North - - N/A   Unknown
9:53 AM 30.9 °F 21.7 °F 3.9 °F 32% 30.29 in 10.0 mi NW 11.5 mph 16.1 mph N/A   Unknown
10:53 AM 33.1 °F - 3.9 °F 29% 30.30 in 10.0 mi North - - N/A   Unknown
11:53 AM 36.0 °F - 5.0 °F 27% 30.28 in - North - - N/A   Unknown
12:53 PM 37.0 °F 27.4 °F 5.0 °F 26% 30.26 in 10.0 mi West 17.3 mph 25.3 mph N/A   Clear
1:53 PM 37.0 °F 31.0 °F 3.9 °F 25% 30.14 in 10.0 mi NW 8.1 mph 17.3 mph N/A   Clear
2:53 PM 39.0 °F 34.8 °F 3.9 °F 23% 30.13 in 10.0 mi WNW 5.8 mph - N/A   Clear
3:53 PM 39.0 °F 31.8 °F 5.0 °F 24% 30.23 in 10.0 mi WNW 11.5 mph 19.6 mph N/A   Clear
4:53 PM 37.9 °F 29.6 °F 5.0 °F 25% 30.22 in 10.0 mi WNW 13.8 mph 20.7 mph N/A   Clear
5:53 PM 35.1 °F 27.4 °F 6.1 °F 30% 30.10 in 10.0 mi NW 10.4 mph - N/A   Clear
6:53 PM 32.0 °F 24.2 °F 6.1 °F 34% 30.23 in 10.0 mi NW 9.2 mph - N/A   Clear
7:53 PM 32.0 °F 24.2 °F 6.1 °F 34% 30.24 in 10.0 mi NW 9.2 mph - N/A   Clear
8:53 PM 26.1 °F 19.4 °F 5.0 °F 41% 30.24 in 10.0 mi North 5.8 mph - N/A   Clear
9:53 PM - - - N/A% 30.09 in - North - - N/A   Unknown
10:53 PM 25.0 °F 19.3 °F 5.0 °F 43% 30.20 in 10.0 mi ESE 4.6 mph - N/A   Unknown
11:53 PM 21.0 °F 14.6 °F 3.9 °F 48% 30.19 in 10.0 mi NNE 4.6 mph - N/A   Clear